^^
Meteo Knjazevac Station Historical Data
Daily Summary for May 22, 2021 Units:  English    Metric   Both
Daily Weekly Monthly Yearly Custom
  High: Low: Average:
Temperature: 62.2 °F 58.8 °F 60.6 °F
Dew Point: 59 °F 57.1 °F 58.1 °F
Humidity: 94% 89% 91%
Wind Speed: 2mph 0mph 0.6mph
Wind Gust: 5mph - -
Wind- - South
Pressure: 30.16 in 30.15 in -
Precipitation: 0.00 in    
Historical Graphs
 
 
Tabular Data for May 22, 2021
Time Temperature Dew Point Pressure Wind Wind Speed Wind Gust Humidity Rainfall Rate (Hourly) solar Conditions
00:00 62.2 °F 59 °F 30.16 in Calm   2 mph 89% 0.00 in 0 W/m2
00:10 62.1 °F 58.8 °F 30.15 in Calm   2 mph 89% 0.00 in 0 W/m2
00:20 61.9 °F 58.6 °F 30.16 in SSE 2 mph 4 mph 89% 0.00 in 0 W/m2
00:30 61.7 °F 58.7 °F 30.16 in SW 1 mph 3 mph 90% 0.00 in 0 W/m2
00:40 61.5 °F 58.6 °F 30.16 in SSW 2 mph 5 mph 90% 0.00 in 0 W/m2
00:50 61.3 °F 58.4 °F 30.16 in Calm   4 mph 90% 0.00 in 0 W/m2
01:00 61.2 °F 58.2 °F 30.16 in Calm   2 mph 90% 0.00 in 0 W/m2
01:10 61.2 °F 58.2 °F 30.16 in SE 1 mph 5 mph 90% 0.00 in 0 W/m2
01:20 61.1 °F 58.1 °F 30.16 in Calm   2 mph 90% 0.00 in 0 W/m2
01:30 61 °F 58.3 °F 30.16 in ESE 1 mph 5 mph 91% 0.00 in 0 W/m2
01:40 60.9 °F 58.3 °F 30.16 in SW 1 mph 2 mph 91% 0.00 in 0 W/m2
01:50 60.7 °F 58.1 °F 30.16 in ENE 1 mph 4 mph 91% 0.00 in 0 W/m2
02:00 60.6 °F 58 °F 30.16 in Calm   2 mph 91% 0.00 in 0 W/m2
02:10 60.4 °F 57.8 °F 30.16 in North 1 mph 2 mph 91% 0.00 in 0 W/m2
02:20 60.3 °F 58.2 °F 30.16 in South 1 mph 3 mph 93% 0.00 in 0 W/m2
02:30 60.1 °F 58 °F 30.15 in East 1 mph 3 mph 93% 0.00 in 0 W/m2
02:40 59.9 °F 57.9 °F 30.16 in Calm   1 mph 93% 0.00 in 0 W/m2
02:50 59.7 °F 57.7 °F 30.15 in Calm   2 mph 93% 0.00 in 0 W/m2
03:00 59.5 °F 57.5 °F 30.15 in Calm   4 mph 93% 0.00 in 0 W/m2
03:10 59.4 °F 57.6 °F 30.15 in Calm   2 mph 94% 0.00 in 0 W/m2
03:20 59.2 °F 57.5 °F 30.15 in Calm   2 mph 94% 0.00 in 0 W/m2
03:30 59 °F 57.3 °F 30.15 in SSE 1 mph 3 mph 94% 0.00 in 0 W/m2
03:40 58.8 °F 57.1 °F 30.15 in NNW 1 mph 4 mph 94% 0.00 in 0 W/m2
Knjazevac, Serbia
Compliments of Weather Underground - 2 mb